THY301 LTFJ-LTBS

Flight info

Callsign THY301
Flight time N/A
Altitude 32000
Route ROXUK UT409 NUMTI UT241 DEN/N0435F310 UW87 LAVTA/N0408F270 W87 ATSAL
Aircraft A321/M-SDE3FGHIRWY/LB1

Departure

Time 2026-05-04 17:29
Airport Istanbul Sabiha Gökçen International Airport (LTFJ)

Arrival

Time N/A
Airport Dalaman International Airport (LTBS)
Time Latitude Longitude Altitude Speed Heading
2026-05-04 17:27 40.90458 29.32093 324 ft 0 kts 64°
2026-05-04 17:28 40.90539 29.32396 324 ft 11 kts 141°
2026-05-04 17:29 40.90292 29.32102 324 ft 77 kts 244°
2026-05-04 17:29 40.88882 29.28191 1342 ft 194 kts 245°
2026-05-04 17:30 40.85448 29.24671 2716 ft 268 kts 194°
2026-05-04 17:31 40.81821 29.23380 3618 ft 274 kts 198°
2026-05-04 17:31 40.76438 29.20923 4944 ft 286 kts 185°
2026-05-04 17:33 40.67397 29.24652 7072 ft 299 kts 158°
2026-05-04 17:33 40.65527 29.25861 7522 ft 300 kts 157°
2026-05-04 17:34 40.59869 29.29507 8875 ft 304 kts 158°
2026-05-04 17:34 40.58121 29.30615 9288 ft 305 kts 158°
2026-05-04 17:35 40.52528 29.34116 10592 ft 311 kts 158°
2026-05-04 17:35 40.48909 29.36709 11389 ft 319 kts 152°
2026-05-04 17:35 40.47365 29.38026 11762 ft 321 kts 149°
2026-05-04 17:36 40.45673 29.39577 12178 ft 323 kts 148°
2026-05-04 17:36 40.43854 29.41339 12630 ft 326 kts 146°
2026-05-04 17:36 40.42062 29.43142 13079 ft 328 kts 145°
2026-05-04 17:36 40.40259 29.44999 13531 ft 330 kts 144°
2026-05-04 17:37 40.38471 29.46867 13978 ft 332 kts 144°
2026-05-04 17:37 40.36695 29.48728 14421 ft 334 kts 144°
2026-05-04 17:37 40.35026 29.50475 14834 ft 336 kts 144°
2026-05-04 17:37 40.33186 29.52397 15286 ft 338 kts 144°
2026-05-04 17:38 40.31359 29.54304 15732 ft 341 kts 144°
2026-05-04 17:38 40.29490 29.56251 16186 ft 343 kts 144°
2026-05-04 17:38 40.27620 29.58199 16636 ft 345 kts 144°
2026-05-04 17:38 40.25752 29.60141 17083 ft 347 kts 144°
2026-05-04 17:39 40.21719 29.63653 17986 ft 347 kts 159°
2026-05-04 17:39 40.19805 29.64639 18377 ft 347 kts 165°
2026-05-04 17:39 40.17468 29.65547 18837 ft 347 kts 169°
2026-05-04 17:40 40.15102 29.66274 19293 ft 349 kts 172°
2026-05-04 17:40 40.12697 29.66896 19751 ft 358 kts 173°
2026-05-04 17:40 40.10235 29.67462 20208 ft 371 kts 174°
2026-05-04 17:40 40.07615 29.68024 20675 ft 385 kts 174°
2026-05-04 17:41 40.04943 29.68576 21134 ft 400 kts 174°
2026-05-04 17:41 40.02141 29.69145 21597 ft 416 kts 174°
2026-05-04 17:41 39.99224 29.69735 22061 ft 433 kts 174°
2026-05-04 17:41 39.96188 29.70352 22524 ft 448 kts 174°
2026-05-04 17:42 39.93074 29.70987 22983 ft 456 kts 174°
2026-05-04 17:42 39.89904 29.71091 23423 ft 455 kts 188°
2026-05-04 17:42 39.86859 29.70222 23879 ft 454 kts 200°
2026-05-04 17:42 39.83924 29.68723 24340 ft 453 kts 207°
2026-05-04 17:43 39.81558 29.67157 24725 ft 453 kts 211°
2026-05-04 17:43 39.78696 29.64957 25205 ft 452 kts 214°
2026-05-04 17:43 39.76224 29.62881 25629 ft 450 kts 216°
2026-05-04 17:43 39.73628 29.60609 26078 ft 449 kts 217°
2026-05-04 17:44 39.71054 29.58324 26526 ft 448 kts 217°
2026-05-04 17:44 39.68490 29.56062 26972 ft 447 kts 217°
2026-05-04 17:44 39.65917 29.53820 27418 ft 446 kts 216°
2026-05-04 17:44 39.63305 29.51547 27872 ft 445 kts 216°
2026-05-04 17:45 39.60745 29.49318 28319 ft 444 kts 216°
2026-05-04 17:45 39.58181 29.47084 28767 ft 443 kts 216°
2026-05-04 17:45 39.55626 29.44856 29215 ft 442 kts 217°
2026-05-04 17:45 39.53073 29.42628 29663 ft 442 kts 217°
2026-05-04 17:46 39.50528 29.40405 29969 ft 444 kts 217°
2026-05-04 17:46 39.47950 29.38152 30069 ft 447 kts 217°
2026-05-04 17:46 39.42840 29.33686 30101 ft 445 kts 217°
2026-05-04 17:47 39.37725 29.29219 30099 ft 442 kts 217°
2026-05-04 17:47 39.32932 29.25038 30100 ft 441 kts 217°
2026-05-04 17:48 39.28119 29.20844 30515 ft 433 kts 217°
2026-05-04 17:48 39.25622 29.18671 30956 ft 432 kts 217°
2026-05-04 17:48 39.23138 29.16509 31402 ft 432 kts 217°
2026-05-04 17:49 39.20636 29.14333 31818 ft 434 kts 217°
2026-05-04 17:49 39.18116 29.12140 31941 ft 440 kts 217°
2026-05-04 17:49 39.13025 29.07716 32001 ft 442 kts 217°
2026-05-04 17:50 39.07970 29.03336 32000 ft 439 kts 216°
2026-05-04 17:50 39.02917 28.98967 32000 ft 438 kts 216°
2026-05-04 17:51 38.97849 28.94591 32000 ft 437 kts 216°
2026-05-04 17:51 38.92811 28.90248 32000 ft 436 kts 216°
2026-05-04 17:52 38.87797 28.85933 32000 ft 436 kts 216°
2026-05-04 17:52 38.82759 28.81604 32000 ft 436 kts 216°
2026-05-04 17:53 38.77717 28.77280 32000 ft 436 kts 216°
2026-05-04 17:53 38.72937 28.73186 32000 ft 436 kts 216°
2026-05-04 17:54 38.67906 28.68885 32000 ft 436 kts 216°
2026-05-04 17:54 38.62942 28.64648 32000 ft 436 kts 216°
2026-05-04 17:55 38.57562 28.61205 31997 ft 443 kts 197°
2026-05-04 17:55 38.51366 28.60490 32005 ft 450 kts 182°
2026-05-04 17:56 38.45096 28.60976 32002 ft 453 kts 178°
2026-05-04 17:56 38.38825 28.61846 32000 ft 453 kts 176°
2026-05-04 17:57 38.32611 28.62782 32000 ft 453 kts 176°
2026-05-04 17:57 38.26664 28.63651 32000 ft 453 kts 176°
2026-05-04 17:58 38.20393 28.64517 31515 ft 460 kts 177°
2026-05-04 17:58 38.17205 28.64937 31069 ft 462 kts 177°
2026-05-04 17:58 38.13999 28.65349 30622 ft 463 kts 177°
2026-05-04 17:59 38.10784 28.65755 30173 ft 463 kts 177°
2026-05-04 17:59 38.07581 28.66152 29724 ft 463 kts 177°
2026-05-04 17:59 38.01187 28.66930 28826 ft 460 kts 178°
2026-05-04 18:00 37.97999 28.67312 28376 ft 459 kts 178°
2026-05-04 18:00 37.94868 28.67684 27933 ft 458 kts 178°
2026-05-04 18:00 37.91695 28.68059 27483 ft 456 kts 178°
2026-05-04 18:00 37.88545 28.68430 27034 ft 454 kts 178°
2026-05-04 18:01 37.85414 28.68797 26584 ft 451 kts 178°
2026-05-04 18:01 37.82295 28.69161 26134 ft 448 kts 178°
2026-05-04 18:01 37.79191 28.69523 25682 ft 446 kts 178°
2026-05-04 18:02 37.73332 28.70172 24822 ft 439 kts 179°
2026-05-04 18:02 37.70321 28.70450 24332 ft 436 kts 179°
2026-05-04 18:02 37.67296 28.70701 23772 ft 433 kts 180°
2026-05-04 18:02 37.64284 28.70930 23198 ft 431 kts 180°
2026-05-04 18:03 37.61420 28.71135 22647 ft 428 kts 180°
2026-05-04 18:03 37.58366 28.71344 22056 ft 426 kts 180°
2026-05-04 18:03 37.55404 28.71543 21477 ft 422 kts 180°
2026-05-04 18:03 37.52489 28.71855 20899 ft 422 kts 175°
2026-05-04 18:04 37.50587 28.72344 20518 ft 422 kts 169°
2026-05-04 18:04 37.47156 28.73768 19811 ft 420 kts 161°
2026-05-04 18:04 37.41943 28.77022 18664 ft 416 kts 153°
2026-05-04 18:05 37.39571 28.78747 18118 ft 412 kts 153°
2026-05-04 18:05 37.37009 28.80643 17519 ft 409 kts 152°
2026-05-04 18:05 37.34566 28.82455 16943 ft 405 kts 152°
2026-05-04 18:05 37.32135 28.84244 16365 ft 402 kts 153°
2026-05-04 18:06 37.27351 28.87665 15222 ft 395 kts 154°
2026-05-04 18:06 37.24961 28.89330 14647 ft 391 kts 154°
2026-05-04 18:06 37.22584 28.90969 14071 ft 388 kts 154°
2026-05-04 18:07 37.20229 28.92584 13497 ft 385 kts 154°
2026-05-04 18:07 37.17930 28.94298 12920 ft 383 kts 150°
2026-05-04 18:07 37.15742 28.96192 12346 ft 381 kts 147°
2026-05-04 18:07 37.13885 28.97975 11838 ft 379 kts 144°
2026-05-04 18:08 37.11842 29.00091 11258 ft 377 kts 142°
2026-05-04 18:08 37.09898 29.02225 10689 ft 374 kts 141°
2026-05-04 18:08 37.07850 29.04195 10076 ft 367 kts 153°
2026-05-04 18:08 37.05451 29.05087 9498 ft 355 kts 177°
2026-05-04 18:09 37.03086 29.04737 8945 ft 343 kts 199°